Simultaneous Nadir Overpasses (SNOs) Predictions

Prediction of SNOs over PacNW region [( 10.00, 139.50) to ( 22.70, 165.60)] between AQUA and NPP Satellites:

Table of predicted SNOs over PacNW region for the next 30.0 days since TLE Epoch: 11/1/2014
Index Date (AQUA) Time (AQUA) AQUA Lat,Lon Date (NPP) Time (NPP) NPP Lat,Lon Distance(km) Time Diff (sec)
1 11/03/2014 02:39:13 10.11, 162.63 11/03/2014 02:41:26 9.83, 161.50 127.26 133
2 11/05/2014 16:19:37 17.67, 141.62 11/05/2014 16:18:14 17.67, 141.59 2.85 83
3 11/11/2014 03:28:33 10.11, 150.30 11/11/2014 03:32:01 9.30, 148.92 175.87 208
4 11/13/2014 15:32:08 10.04, 152.33 11/13/2014 15:29:38 10.03, 152.49 17.17 150
5 11/19/2014 02:38:54 10.12, 162.72 11/19/2014 02:41:24 9.84, 161.48 139.55 150
6 11/21/2014 16:18:54 18.85, 142.00 11/21/2014 16:17:51 18.86, 141.86 14.91 63
7 11/27/2014 03:27:59 10.07, 150.46 11/27/2014 03:31:28 7.63, 149.28 299.94 209




NCC Satellite Simultaneous Nadir Overpasses (SNOs) Prediction Service
